Location: Ab? ar R?sh Ba?r?
(24.1861°N, 32.8847°E)
Time: 00:36:17
(UTC+00:00)

Okean 1-7 Rocket - Pass Details

Date: 24 October 2021
Orbit: 617 x 648 km, 82.5° (Epoch: 05 December)

Event Time Altitude Azimuth Distance (km) Brightness Sun altitude
Rises 16:20:24 0° 350° (N) 2,905 7.1 -15.7°
Reaches altitude 10° 16:22:39 10° 347° (NNW) 2,000 6.2 -16.2°
Maximum altitude 16:27:01 64° 267° (W) 700 4.0 -17.2°
Drops below altitude 10° 16:31:26 10° 186° (S) 2,011 6.3 -18.2°
Sets 16:33:42 0° 183° (S) 2,922 7.1 -18.7°
